[[{"header":{"parameterUnit":"m.s-1","parameterCategory":1,"la1":30.2991,"la2":30.254,"lo1":-89.0895,"lo2":-89.0444,"dy":0.0017,"dx":0.0017,"nx":28,"ny":28,"refTime":"2025-08-08T03:00:00:Z","depth":0,"parameterNumber":2,"parameterNumberName":"U-component_of_WINDS"},"data":[0,0,0,0,0,0,0,0,0,0,0,0,0,0,0,0,0,0,0,0,0,0,0,0,0,0,0,0,0,0,0,0,0,0,0,0,0,0,0,0,0,0,0,0,0,0,0,0,0,0,0,0,0,0,0,0,0,0,-3.8649,-3.8649,0,-3.8612,-3.8612,-3.8611,-3.8415,-3.841,-3.8405,-3.8401,-3.8366,-3.8369,-3.8373,0,0,0,0,0,0,0,0,0,0,0,0,0,-3.8552,-3.8555,-3.8649,-3.8649,-3.8648,-3.8612,-3.8612,-3.8611,-3.8416,-3.841,-3.8404,-3.8399,-3.8365,-3.8369,-3.8373,0,0,0,0,0,0,0,0,0,0,0,0,0,-3.8563,-3.8556,-3.8649,-3.8546,-3.8536,-3.8612,-3.8612,-3.8611,-3.8417,-3.841,-3.8403,-3.8396,-3.8364,-3.8369,-3.8374,-3.8547,0,0,-3.8389,-3.8392,0,0,0,0,0,0,0,0,-3.8563,-3.8567,-3.8562,-3.8553,-3.8543,-3.8511,-3.8564,-3.859,-3.8419,-3.8462,-3.8401,-3.8393,-3.842,-3.842,-3.8429,-3.8545,-3.8543,-3.839,-3.8393,-3.8395,-3.8397,0,0,0,0,0,0,0,-3.8562,-3.8567,-3.8634,-3.8562,-3.855,-3.8502,-3.8496,-3.8568,-3.8481,-3.8458,-3.8444,-3.8442,-3.8413,-3.8424,-3.8427,-3.8543,-3.839,-3.8394,-3.8398,-3.84,-3.8799,-3.8806,0,0,0,0,0,0,-3.8575,-3.8568,-3.8635,-3.8633,-3.8535,-3.851,-3.8503,-3.8528,-3.848,-3.8466,-3.8448,-3.8433,-3.8419,-3.8421,-3.8425,-3.8623,-3.8395,-3.84,-3.8403,-3.8791,-3.88,-3.8809,0,0,0,0,0,0,-3.8574,-3.8583,-3.8637,-3.8597,-3.86,-3.8519,-3.8549,-3.8531,-3.8541,-3.8472,-3.8456,-3.8475,-3.8413,-3.8417,-3.8517,-3.8619,-3.8402,-3.8407,-3.8783,-3.8794,-3.8805,-3.9023,0,0,0,0,0,0,-3.8572,-3.8584,-3.8648,-3.86,-3.8603,-3.8731,-3.8555,-3.8536,-3.8551,-3.8531,-3.8493,-3.848,-3.8408,-3.8511,-3.8523,-3.8622,-3.8411,-3.8773,-3.8788,-3.8801,-3.9006,-3.904,-3.9069,0,0,0,0,0,-3.8569,-3.8712,-3.8653,-3.8662,-3.8681,-3.8737,-3.8738,-3.8652,-3.856,-3.8624,-3.8579,-3.8481,-3.8607,-3.8523,-3.8534,-3.8637,-3.8766,-3.8784,-3.88,-3.8992,-3.9033,-3.9068,0,0,0,0,0,0,-3.8776,-3.8704,-3.8637,-3.8768,-3.876,-3.8703,-3.8781,-3.8699,-3.8717,-3.8698,-3.8591,-3.8584,-3.87,-3.8678,-3.8587,-3.8802,-3.867,-3.869,-3.8812,-3.885,-3.8881,-3.8884,-3.8415,0,0,0,0,0,-3.8836,-3.8887,-3.8821,-3.8943,-3.8942,-3.8864,-3.8884,-3.8818,-3.8806,-3.8802,-3.8764,-3.8757,-3.8794,-3.8821,-3.8852,-3.9002,-3.8991,-3.9079,-3.911,-3.9137,-3.9155,-3.9233,-3.9271,-3.8864,-3.8864,-3.8864,0,0,-3.8962,-3.8929,-3.8967,-3.8984,-3.8969,-3.9024,-3.8862,-3.8927,-3.8967,-3.8812,-3.8903,-3.8877,-3.8861,-3.8987,-3.9041,-3.8973,-3.9265,-3.9158,-3.918,-3.9183,-3.9254,-3.9293,-3.9327,-3.8875,-3.8873,-3.8872,0,0,-3.9219,-3.92,-3.9298,-3.9288,-3.9268,-3.9215,-3.9239,-3.9195,-3.9171,-3.9261,-3.9146,-3.9193,-3.9259,-3.9253,-3.9258,-3.9514,-3.9425,-3.9528,-3.9692,-3.9769,-3.9801,-3.9829,-3.9919,-3.9953,-3.9546,-3.9547,-3.9547,0,-3.9378,-3.9455,-3.936,-3.9432,-3.9443,-3.9305,-3.9404,-3.9399,-3.9392,-3.9402,-3.9326,-3.9407,-3.9387,-3.9509,-3.9572,-3.9581,-3.9605,-3.9531,-3.9804,-3.9831,-3.9855,-3.9941,-3.9975,-3.9559,-3.9558,-3.9557,-3.9555,0,-3.9651,-3.9707,-3.979,-3.9784,-3.9804,-3.9891,-3.9809,-3.9841,-3.9774,-3.9729,-3.9823,-3.9794,-3.9816,-3.9841,-3.9777,-3.9955,-3.9913,-3.9823,-3.9687,-3.9908,-3.9987,-4.0019,-3.9577,-3.9573,-3.9569,-3.9566,0,0,-4.0036,-3.9977,-4.0009,-4.0005,-3.9974,-4.0015,-4.0096,-4.0116,-4.0146,-4.0146,-4.021,-4.027,-4.0186,-4.0193,-4.0127,-4.0195,-4.0399,-4.0095,-4.0093,-4.0152,-4.0593,-4.066,-4.07,-4.0339,-4.0345,-4.035,-4.0594,0,-4.0281,-4.0413,-4.033,-4.0475,-4.0525,-4.0396,-4.0465,-4.0455,-4.0416,-4.0453,-4.0409,-4.0454,-4.0339,-4.0342,-4.0404,-4.0361,-4.0485,-4.0342,-4.0399,-4.0402,-4.0405,-4.0741,-4.0812,-4.1043,-4.0624,-4.0629,-4.0633,0,-4.0584,-4.0596,-4.0747,-4.0705,-4.0723,-4.0788,-4.08,-4.0837,-4.0823,-4.0789,-4.0798,-4.0715,-4.0791,-4.0659,-4.0763,-4.0667,-4.0686,-4.0669,-4.0675,-4.0676,-4.053,-4.075,-4.1115,-4.115,-4.068,-4.0676,-4.0673,0,-4.0849,-4.0903,-4.0999,-4.1,-4.0955,-4.1003,-4.0986,-4.0964,-4.0983,-4.0994,-4.1005,-4.1026,-4.1038,-4.1056,-4.0982,-4.0892,-4.1096,-4.0957,-4.107,-4.1073,-4.1118,-4.1116,-4.149,-4.1133,-4.1132,-4.1131,-4.1131,0,-4.113,-4.1227,-4.1117,-4.1177,-4.1282,-4.1186,-4.1293,-4.1263,-4.1245,-4.1297,-4.1187,-4.1238,-4.1136,-4.1178,-4.112,-4.1215,-4.1222,-4.1197,-4.118,-4.1206,-4.1209,-4.1216,-4.1197,-4.114,-4.1138,-4.1137,-4.1135,0,-4.1442,-4.1373,-4.1469,-4.1418,-4.1408,-4.1488,-4.1444,-4.1498,-4.1451,-4.1519,-4.1529,-4.1457,-4.15,-4.1427,-4.1462,-4.1423,-4.1555,-4.1514,-4.156,-4.1547,-4.1664,-4.1654,-4.2055,-4.2102,-4.1716,-4.172,-4.1723,0,-4.1626,-4.1697,-4.1654,-4.168,-4.167,-4.1714,-4.1731,-4.1641,-4.1664,-4.1653,-4.1708,-4.1742,-4.1763,-4.1839,-4.179,-4.1816,-4.1774,-4.1913,-4.1777,-4.1801,-4.1775,-4.1771,-4.1777,-4.194,-4.1945,-4.1949,-4.1952,0,-4.1958,-4.192,-4.1949,-4.1967,-4.1991,-4.2001,-4.2003,-4.2031,-4.1935,-4.1967,-4.2009,-4.2026,-4.2061,-4.2096,-4.211,-4.2094,-4.2008,-4.1996,-4.2023,-4.2049,-4.2072,-4.206,-4.1634,-4.1986,-4.1983,-4.198,-4.1978,-4.1977,-4.221,-4.2267,-4.2246,-4.2282,-4.2274,-4.2278,-4.2326,-4.2285,-4.2318,-4.2339,-4.2284,-4.234,-4.2324,-4.2334,-4.2327,-4.237,-4.2308,-4.2348,-4.2358,-4.2369,-4.2387,-4.2067,-4.2372,-4.2371,-4.237,-4.2369,-4.2369,0,-4.2536,-4.2516,-4.255,-4.2555,-4.2585,-4.2501,-4.2499,-4.2528,-4.2578,-4.257,-4.2594,-4.2643,-4.2677,-4.2631,-4.2657,-4.27,-4.2661,-4.271,-4.2705,-4.2703,-4.2441,-4.2414,-4.2741,-4.2741,-4.2741,-4.2741,-4.2741,-4.2741,-4.2708,-4.28,-4.276,-4.2848,-4.2827,-4.2879,-4.2885,-4.2889,-4.2882,-4.2942,-4.2969,-4.2938,-4.2916,-4.2939,-4.2967,-4.2953,-4.2967,-4.3029,-4.3002,-4.2758,-4.2721,-4.2686,-4.266,-4.3034,-4.3034,-4.3259,-4.3261,-4.3263]},{"header":{"parameterUnit":"m.s-1","parameterCategory":1,"la1":30.2991,"la2":30.254,"lo1":-89.0895,"lo2":-89.0444,"dy":0.0017,"dx":0.0017,"nx":28,"ny":28,"refTime":"2025-08-08T03:00:00:Z","depth":0,"parameterNumber":3,"parameterNumberName":"V-component_of_WINDS"},"data":[0,0,0,0,0,0,0,0,0,0,0,0,0,0,0,0,0,0,0,0,0,0,0,0,0,0,0,0,0,0,0,0,0,0,0,0,0,0,0,0,0,0,0,0,0,0,0,0,0,0,0,0,0,0,0,0,0,0,-2.2533,-2.2533,0,-2.259,-2.2591,-2.2592,-2.2612,-2.2612,-2.2612,-2.2612,-2.2669,-2.2671,-2.2672,0,0,0,0,0,0,0,0,0,0,0,0,0,-2.2436,-2.2438,-2.2533,-2.2533,-2.2534,-2.259,-2.2591,-2.2592,-2.2612,-2.2612,-2.2612,-2.2612,-2.2669,-2.2671,-2.2673,0,0,0,0,0,0,0,0,0,0,0,0,0,-2.2484,-2.2438,-2.2532,-2.2551,-2.2553,-2.259,-2.2591,-2.2592,-2.2612,-2.2612,-2.2612,-2.2612,-2.2668,-2.267,-2.2673,-2.2695,0,0,-2.2681,-2.2682,0,0,0,0,0,0,0,0,-2.2482,-2.2488,-2.2548,-2.255,-2.2552,-2.2594,-2.2578,-2.2626,-2.2613,-2.259,-2.2612,-2.2611,-2.2644,-2.2649,-2.266,-2.2698,-2.27,-2.2681,-2.2683,-2.2684,-2.2684,0,0,0,0,0,0,0,-2.2478,-2.2486,-2.2555,-2.2548,-2.2551,-2.2555,-2.2562,-2.2587,-2.2618,-2.2592,-2.2594,-2.26,-2.2645,-2.2658,-2.2662,-2.2701,-2.2681,-2.2683,-2.2685,-2.2686,-2.2756,-2.2757,0,0,0,0,0,0,-2.2472,-2.2483,-2.2554,-2.2557,-2.2516,-2.2557,-2.2565,-2.2581,-2.2618,-2.2623,-2.26,-2.2601,-2.2653,-2.2659,-2.2664,-2.2691,-2.2684,-2.2686,-2.2688,-2.2756,-2.2756,-2.2757,0,0,0,0,0,0,-2.247,-2.2478,-2.2551,-2.252,-2.253,-2.2559,-2.2577,-2.2582,-2.2594,-2.2624,-2.2629,-2.2607,-2.2653,-2.266,-2.2687,-2.2693,-2.2687,-2.269,-2.2756,-2.2756,-2.2757,-2.2745,0,0,0,0,0,0,-2.2467,-2.2478,-2.2487,-2.252,-2.2532,-2.2574,-2.2578,-2.2584,-2.2599,-2.26,-2.2632,-2.2637,-2.2654,-2.2683,-2.2689,-2.2696,-2.2692,-2.2755,-2.2756,-2.2756,-2.2745,-2.2745,-2.2745,0,0,0,0,0,-2.2464,-2.2482,-2.2488,-2.2496,-2.2544,-2.2575,-2.2581,-2.26,-2.26,-2.2609,-2.2627,-2.2636,-2.2691,-2.2685,-2.2693,-2.2701,-2.2755,-2.2756,-2.2756,-2.2745,-2.2745,-2.2745,0,0,0,0,0,0,-2.2449,-2.2487,-2.2494,-2.2523,-2.2545,-2.2578,-2.2591,-2.26,-2.2622,-2.2622,-2.2644,-2.2651,-2.2675,-2.2691,-2.2684,-2.2723,-2.2723,-2.2726,-2.2712,-2.2713,-2.2713,-2.2709,-2.2694,0,0,0,0,0,-2.2449,-2.2471,-2.2503,-2.2525,-2.2536,-2.2561,-2.2575,-2.2588,-2.2611,-2.2621,-2.2642,-2.2664,-2.2686,-2.27,-2.2722,-2.2747,-2.2753,-2.2756,-2.2756,-2.2756,-2.2758,-2.277,-2.2772,-2.2759,-2.2759,-2.2759,0,0,-2.2449,-2.2473,-2.2486,-2.2523,-2.2542,-2.2563,-2.2569,-2.2592,-2.2608,-2.2624,-2.2651,-2.2666,-2.2692,-2.2717,-2.2729,-2.2731,-2.2762,-2.2757,-2.2757,-2.2759,-2.2771,-2.2772,-2.2773,-2.276,-2.276,-2.276,0,0,-2.2461,-2.2482,-2.2502,-2.252,-2.2549,-2.2565,-2.2569,-2.26,-2.2611,-2.2638,-2.265,-2.2668,-2.2706,-2.2724,-2.2737,-2.2752,-2.2761,-2.2759,-2.276,-2.2772,-2.2772,-2.2773,-2.2778,-2.2779,-2.276,-2.276,-2.276,0,-2.2458,-2.2492,-2.2511,-2.2533,-2.2548,-2.2564,-2.2584,-2.26,-2.2634,-2.2644,-2.2644,-2.2691,-2.2709,-2.2738,-2.2742,-2.2753,-2.2758,-2.2756,-2.2771,-2.2772,-2.2773,-2.2778,-2.2779,-2.276,-2.276,-2.276,-2.276,0,-2.2486,-2.2509,-2.2522,-2.2554,-2.257,-2.2591,-2.2612,-2.2626,-2.2637,-2.2652,-2.2677,-2.27,-2.2726,-2.2733,-2.2744,-2.2763,-2.2763,-2.2767,-2.2768,-2.2774,-2.2778,-2.278,-2.2759,-2.2759,-2.276,-2.276,0,0,-2.2492,-2.2533,-2.2537,-2.2551,-2.2582,-2.2599,-2.2619,-2.2645,-2.2656,-2.2678,-2.2695,-2.2725,-2.2728,-2.2744,-2.2756,-2.2766,-2.2775,-2.2769,-2.277,-2.2769,-2.2796,-2.2793,-2.2795,-2.2781,-2.2781,-2.2781,-2.2794,0,-2.2507,-2.2545,-2.2562,-2.2592,-2.2612,-2.2626,-2.2643,-2.2663,-2.2677,-2.2696,-2.2711,-2.2732,-2.2735,-2.2744,-2.2755,-2.2772,-2.2781,-2.2771,-2.2796,-2.2796,-2.2789,-2.2798,-2.2795,-2.2806,-2.2796,-2.2796,-2.2797,0,-2.2531,-2.2553,-2.2585,-2.2611,-2.262,-2.2636,-2.2659,-2.2677,-2.2699,-2.2708,-2.2724,-2.2735,-2.2755,-2.2754,-2.2782,-2.2774,-2.2785,-2.2794,-2.2795,-2.2798,-2.2797,-2.2801,-2.281,-2.2811,-2.28,-2.2799,-2.2799,0,-2.2531,-2.2568,-2.2591,-2.2603,-2.2635,-2.2645,-2.2659,-2.268,-2.2694,-2.2714,-2.2723,-2.2744,-2.2756,-2.2772,-2.2788,-2.2787,-2.2813,-2.2814,-2.2821,-2.2821,-2.2827,-2.2826,-2.2837,-2.2833,-2.2833,-2.2833,-2.2833,0,-2.2547,-2.2565,-2.2592,-2.2606,-2.2627,-2.2645,-2.2664,-2.2679,-2.2697,-2.2714,-2.2726,-2.2741,-2.2762,-2.2778,-2.2791,-2.281,-2.2816,-2.2823,-2.2826,-2.2822,-2.2821,-2.283,-2.2829,-2.2834,-2.2834,-2.2834,-2.2833,0,-2.2551,-2.2569,-2.2595,-2.2623,-2.263,-2.2644,-2.2667,-2.268,-2.2694,-2.2714,-2.272,-2.2742,-2.2762,-2.278,-2.2806,-2.2814,-2.2835,-2.2839,-2.2827,-2.2829,-2.2835,-2.2834,-2.2852,-2.2855,-2.2849,-2.2849,-2.2849,0,-2.256,-2.2574,-2.2603,-2.2615,-2.2628,-2.2647,-2.2661,-2.2678,-2.2692,-2.2716,-2.2727,-2.2748,-2.2766,-2.2797,-2.2815,-2.2835,-2.2839,-2.2844,-2.2842,-2.2837,-2.2838,-2.2837,-2.2838,-2.2844,-2.2844,-2.2844,-2.2844,0,-2.2573,-2.2581,-2.26,-2.2622,-2.2638,-2.2656,-2.2675,-2.2683,-2.2704,-2.2718,-2.2739,-2.2753,-2.2779,-2.28,-2.2821,-2.2834,-2.2842,-2.2844,-2.2847,-2.2843,-2.2836,-2.2839,-2.2827,-2.2844,-2.2844,-2.2844,-2.2844,-2.2844,-2.2579,-2.2592,-2.2614,-2.2634,-2.265,-2.2666,-2.268,-2.2695,-2.2713,-2.2737,-2.2745,-2.2766,-2.2786,-2.2815,-2.2828,-2.2843,-2.2845,-2.2849,-2.285,-2.285,-2.2849,-2.2833,-2.2847,-2.2847,-2.2847,-2.2847,-2.2847,0,-2.2593,-2.2607,-2.2626,-2.2651,-2.2666,-2.2672,-2.2692,-2.2705,-2.2723,-2.2741,-2.2758,-2.2781,-2.28,-2.2818,-2.2838,-2.2847,-2.2851,-2.2852,-2.2851,-2.2854,-2.2847,-2.2843,-2.2848,-2.2848,-2.2848,-2.2848,-2.2848,-2.2848,-2.2602,-2.2623,-2.2633,-2.2662,-2.2676,-2.2697,-2.2707,-2.2722,-2.2736,-2.2761,-2.2777,-2.2789,-2.2806,-2.2827,-2.2844,-2.2849,-2.2856,-2.2855,-2.2861,-2.2855,-2.2854,-2.2854,-2.285,-2.2857,-2.2857,-2.2866,-2.2866,-2.2866]}]]